{"data":{"norad_id":47887,"intl_designator":"2021-021AD","name":"STARLINK-2346","alt_names":[],"object_type":"PAYLOAD","status":"ACTIVE","operator":null,"country":"US","launch_date":"2021-03-14","launch_site_code":"AFETR","launch_vehicle":null,"mission":null,"orbit_class":"UNKNOWN","rcs_meters":null,"size_class":null,"mass_kg":null,"dimensions":null,"purposes":["comms"],"wikipedia_slug":null,"has_3d_model":false,"image_url":null,"decayed_at":null,"tle_current":{"epoch":"2026-09-20T02:46:00.820992Z","epoch_age_seconds":62489,"freshness":"FRESH","line1":"1 47887U 21021AD  26263.11528728  .00046132  00000+0  14736-2 0  9991","line2":"2 47887  53.1592  96.1521 0001941 101.9720 258.1499 15.32036497305859","mean_motion":15.32036497,"eccentricity":0.0001941,"inclination_deg":53.1592,"raan_deg":96.1521,"arg_perigee_deg":101.972,"mean_anomaly_deg":258.1499,"bstar":0.0014736,"rev_number":30585,"period_min":93.99253887357,"perigee_km":468.40792641779,"apogee_km":471.06627114294,"semimajor_km":6847.8740987804,"source":"CELESTRAK","updated_at":"2026-09-20T09:00:38.756030Z"}}}